Ellsworth AFB, SD

5:45 AM MST on January 18, 2018 (GMT -0700)
Ellsworth Air Force Base

Weather History for KRCA - July, 2012

Change the Weather History Date:

Wednesday, July 11, 2012

  Actual Average Record
Temperature  
Mean Temperature 83 °F -  
Max Temperature 98 °F 85 °F 99 °F (2013)
Min Temperature 68 °F 60 °F 51 °F (2007)
Cooling Degree Days 18    
Growing Degree Days 33 (Base 50)    
Moisture  
Dew Point 51 °F    
Average Humidity 36    
Maximum Humidity 62    
Minimum Humidity 16    
Precipitation  
Precipitation 0.00 in - - ()
Sea Level Pressure  
Sea Level Pressure 29.90 in    
Wind  
Wind Speed 10 mph (SSW)    
Max Wind Speed 26 mph    
Max Gust Speed 37 mph    
Visibility 10 miles    
Events Rain , Thunderstorm    
Averages and records for this station are not official NWS values.
T = Trace of Precipitation, MM = Missing Value Source: NWS Daily Summary

Daily Weather History Graph

Daily Weather History Graph

Search for Another Location

Airport or City:

Trip Planner

Search our weather history database for the weather conditions in past years. The results will help you decide how hot, cold, wet, or windy it might be!

Date:

Astronomy

Jul. 11, 2012 Rise Set
Actual Time 5:20 AM MDT 8:35 PM MDT
Civil Twilight 4:44 AM MDT 9:10 PM MDT
Nautical Twilight 3:58 AM MDT 9:56 PM MDT
Astronomical Twilight 3:01 AM MDT 10:52 PM MDT
Moon 12:02 AM MDT (7/11) 2:06 PM MDT (7/11)
Length of Visible Light 16h 26m
Length of Day
15h 15m
Last Quarter, 44% of the Moon is Illuminated
Jul 11
Last Quarter
Jul 18
New
Jul 26
First Quarter
Aug 1
Full
Aug 9
Last Quarter

Hourly Weather History & Observations

Time (MDT) Temp. Heat Index Dew Point Humidity Pressure Visibility Wind Dir Wind Speed Gust Speed Precip Events Conditions
12:55 AM 72.7 °F - 48.0 °F 42% 29.96 in 10.0 mi SSW 8.1 mph - N/A   Clear
1:55 AM 71.6 °F - 47.8 °F 43% 29.95 in 10.0 mi South 11.5 mph - N/A   Clear
2:55 AM 69.6 °F - 49.1 °F 48% 29.96 in 10.0 mi SSE 8.1 mph - N/A   Clear
3:55 AM 68.5 °F - 49.8 °F 51% 29.94 in 10.0 mi South 15.0 mph - N/A   Clear
4:55 AM 69.3 °F - 50.0 °F 50% 29.93 in 10.0 mi South 9.2 mph - N/A   Clear
5:55 AM 68.9 °F - 50.4 °F 52% 29.94 in 10.0 mi South 11.5 mph - N/A   Clear
6:55 AM 70.9 °F - 52.2 °F 51% 29.95 in 10.0 mi South 3.5 mph - N/A   Partly Cloudy
7:55 AM 74.5 °F - 53.8 °F 48% 29.95 in 10.0 mi South 9.2 mph - N/A   Clear
8:55 AM 79.9 °F - 55.6 °F 43% 29.94 in 10.0 mi SSW 6.9 mph - N/A   Clear
9:55 AM 84.2 °F 83.0 °F 55.0 °F 37% 29.93 in 10.0 mi South 10.4 mph - N/A   Clear
10:55 AM 91.4 °F 88.9 °F 53.1 °F 27% 29.91 in 10.0 mi South 16.1 mph 21.9 mph N/A   Clear
11:55 AM 94.3 °F - 49.3 °F 21% 29.88 in 10.0 mi South 17.3 mph 24.2 mph N/A   Clear
12:55 PM 95.4 °F - 48.9 °F 21% 29.87 in 10.0 mi South 20.7 mph 24.2 mph N/A   Partly Cloudy
1:55 PM 97.2 °F - 49.6 °F 20% 29.86 in 10.0 mi South 12.7 mph 21.9 mph N/A   Partly Cloudy
2:55 PM 95.9 °F - 48.0 °F 19% 29.85 in 10.0 mi Variable 6.9 mph - N/A   Scattered Clouds
3:55 PM 98.2 °F - 48.6 °F 18% 29.83 in 10.0 mi SE 4.6 mph - N/A   Partly Cloudy
4:55 PM 97.7 °F - 44.6 °F 16% 29.82 in 10.0 mi NNW 5.8 mph - N/A   Partly Cloudy
5:55 PM 96.8 °F - 48.0 °F 19% 29.81 in 10.0 mi South 6.9 mph - N/A   Clear
6:55 PM 94.5 °F - 48.0 °F 20% 29.81 in 10.0 mi SSW 4.6 mph - N/A   Partly Cloudy
7:55 PM 88.2 °F - 49.5 °F 26% 29.80 in 10.0 mi West 5.8 mph - N/A   Scattered Clouds
8:55 PM 80.4 °F - 48.6 °F 33% 29.80 in 10.0 mi West 4.6 mph - N/A   Scattered Clouds
9:55 PM 85.1 °F - 47.8 °F 27% 29.89 in 10.0 mi WNW 26.5 mph 36.8 mph 0.00 in Rain , Thunderstorm Light Thunderstorms and Rain
10:52 PM 73.4 °F - 59.0 °F 61% 30.01 in 10.0 mi SSW 5.8 mph - N/A   Overcast
10:55 PM 72.5 °F - 58.6 °F 62% 29.92 in 10.0 mi SW 4.6 mph - 0.00 in   Overcast
11:55 PM 76.6 °F - 53.1 °F 44% 29.89 in 9.0 mi WSW 4.6 mph - 0.00 in   Partly Cloudy